Regional Weather Roundup
Issued by NWS Bismarck, ND

Home | Current Version | Previous Version | Text Only | Print | Product List | Glossary On
Versions: 1 2 3 4 5 6 7 8 9 10 11 12 13 14 15 16 17 18 19 20 21 22 23 24 25 26 27 28 29 30 31 32 33 34 35 36 37 38 39 40 41 42 43 44 45 46 47 48 49 50
000
ASUS43 KBIS 290520
RWRBIS

NWR BROADCAST TEXT
NATIONAL WEATHER SERVICE BISMARCK ND
1100 PM CST WED JAN 28 2015

NOTE: "FAIR" INDICATES FEW OR NO CLOUDS BELOW 12,000 FEET WITH NO
SIGNIFICANT WEATHER AND/OR OBSTRUCTIONS TO VISIBILITY.


CITY           SKY/WX    TMP DP  RH WIND       PRES   REMARKS
WILLISTON      CLOUDY    32  27  81 N15G24    30.30R
MINOT          CLOUDY    29  25  85 NW17      30.21R WCI  17
MINOT AFB      CLOUDY    29  29  99 NW18      30.21R WCI  16
BISMARCK       CLOUDY    33  28  81 NW15G23   30.21R
DICKINSON      CLOUDY    32  27  81 NW13      30.24R
GARRISON         N/A     31  28  89 NW18      30.21R WCI  19
HETTINGER ARPT CLOUDY    32  26  78 NW17G28   30.26R
JAMESTOWN      CLOUDY    27  22  81 NW22G31   30.11R WCI  13
BEACH          CLOUDY    32  30  93 NW13      30.30R
CARRINGTON     CLOUDY    27  27 100 MISG      30.15R
CROSBY         CLOUDY    27  27 100 N21       30.30R WCI  13
HARVEY         CLOUDY    27  27 100 NW17G28   30.17R WCI  14
HAZEN          CLOUDY    32  28  86 NW9       30.24R
LINTON         CLOUDY    32  32 100 NW22G30   30.18R WCI  19
MANDAN         CLOUDY    32  27  80 NW23G35   30.21R WCI  19
OAKES            N/A     30  30 100 NW28G37   30.08R WCI  16
RUGBY          CLOUDY    25  23  93 NW18G26   30.17R WCI  11
STANLEY        CLOUDY    27  27 100 NW17G28   30.23R WCI  14
TIOGA          CLOUDY    27  27 100 NW23G32   30.30R WCI  12
WATFORD CITY   CLOUDY    32  28  86 NW13      30.26R
$$

CITY           SKY/WX    TMP DP  RH WIND       PRES   REMARKS
GRAND FORKS    CLOUDY    25  21  85 N18       30.07R WCI  11
GRAND FORKS AF CLOUDY    24  20  83 N16       30.08R WCI  11
DEVILS LAKE    CLOUDY    25  19  80 NW15      30.13R WCI  12
FARGO          CLOUDY    30  26  85 NW18G29   30.04R WCI  18
CANDO          CLOUDY    23  21  93 NW18      30.14R WCI   9
CAVALIER       CLOUDY    19  16  86 NW17G23   30.12R WCI   4
GWINNER        CLOUDY    32  32 100 N24G30    30.08R WCI  19
LANGDON        CLOUDY    19  18  93 N21G30    30.10R WCI   3
ROLLA          CLOUDY    19  19 100 NW25G31   30.14R WCI   2
WALHALLA         N/A     19  19 100 NW20G25   30.14R WCI   4
$$

CITY           SKY/WX    TMP DP  RH WIND       PRES   REMARKS
ABERDEEN       CLOUDY    33  27  78 NW24G33   30.12R
MOBRIDGE       CLOUDY    35  29  78 NW18G30   30.17R
BUFFALO          N/A     32  26  78 NW17      30.23R
RAPID CITY     MOCLDY    32  27  81 N21       30.28R WCI  20
GLASGOW        CLEAR     30  26  85 NW12      30.36R
SIDNEY         CLOUDY    34  27  75 NW16      30.35R
WOLF POINT     PTCLDY    31  25  78 W7        30.37R
GLENDIVE       CLOUDY    34  27  75 NW12      30.35R
MILES CITY     CLEAR     29  26  89 NW6       30.37R
BAKER          CLOUDY    32  28  85 W16       30.31R
$$

CITY           SKY/WX    TMP DP  RH WIND       PRES   REMARKS
BILLINGS       MOCLDY    40  27  59 CALM      30.40R
GREAT FALLS    CLEAR     31  29  92 E7        30.37
REGINA         CLOUDY    23  21  93 NW20      30.32R WCI   8
ESTEVAN        FLURRIES  25  21  86 NW18G29   30.28R WCI  11
$$




USA.gov is the U.S. government's official web portal to all federal, state and local government web resources and services.